Location: Alafon
(8.4500°N, 4.2333°E)
Time: 02:31:11
(UTC+00:00)

Vanguard 2 - Pass Details

Date: 06 August 2021
Orbit: 552 x 2937 km, 32.9° (Epoch: 21 September)

Event Time Altitude Azimuth Distance (km) Brightness Sun altitude
Rises 21:17:00 0° 219° (SW) 5,927 12.1 -44.9°
Reaches altitude 10° 21:22:00 10° 211° (SSW) 4,521 11.4 -46.0°
Enters shadow 21:22:38 11° 210° (SSW) 4,341 11.3 -46.1°
Maximum altitude 21:31:56 33° 153° (SSE) 2,250 - -48.0°
Drops below altitude 10° 21:38:20 10° 91° (E) 2,894 - -49.2°
Sets 21:40:48 0° 80° (E) 3,589 - -49.7°
